Mount Airy, NC

2:40 AM EDT on October 23, 2019 (GMT -0400)
Mount Airy-Surry County

Weather History for KMWK - September, 2019

Change the Weather History Date:

Wednesday, September 18, 2019

  Actual Average (KINT) Record (KINT)
Temperature  
Mean Temperature 67 °F -  
Max Temperature 72 °F 76 °F 93 °F (1991)
Min Temperature 62 °F 58 °F 43 °F (1984)
Cooling Degree Days 2    
Growing Degree Days 17 (Base 50)    
Moisture  
Dew Point 63 °F    
Average Humidity 81    
Maximum Humidity 90    
Minimum Humidity 67    
Precipitation  
Precipitation 0.00 in - - ()
Sea Level Pressure  
Sea Level Pressure 30.19 in    
Wind  
Wind Speed 4 mph ()    
Max Wind Speed 9 mph    
Max Gust Speed -    
Visibility 10.0 miles    
Events      
Averages and records for this station are not official NWS values.
T = Trace of Precipitation, MM = Missing Value Source: Averaged Metar Reports

Daily Weather History Graph

Daily Weather History Graph

Search for Another Location

Airport or City:

Astronomy

Sep. 18, 2019 Rise Set
Actual Time 7:06 AM EDT 7:25 PM EDT
Civil Twilight 6:40 AM EDT 7:51 PM EDT
Nautical Twilight 6:10 AM EDT 8:21 PM EDT
Astronomical Twilight 5:39 AM EDT 8:52 PM EDT
Moon 10:05 PM EDT (9/18) 11:02 AM EDT (9/18)
Length of Visible Light 13h 10m
Length of Day
12h 18m
Waning Gibbous, 82% of the Moon is Illuminated
Sep 18
Waning Gibbous
Sep 21
Last Quarter
Sep 28
New
Oct 5
First Quarter
Oct 13
Full

Hourly Weather History & Observations

Time (EDT) Temp. Dew Point Humidity Pressure Visibility Wind Dir Wind Speed Gust Speed Precip Events Conditions
12:15 AM 72.1 °F 67.1 °F 84% 30.14 in 10.0 mi ENE 4.6 mph - N/A   Overcast
12:35 AM 71.6 °F 66.6 °F 84% 30.14 in 10.0 mi ENE 6.9 mph - N/A   Overcast
12:55 AM 71.1 °F 65.8 °F 84% 30.14 in 10.0 mi ENE 5.8 mph - N/A   Overcast
1:15 AM 70.7 °F 65.3 °F 83% 30.14 in 10.0 mi ENE 6.9 mph - N/A   Overcast
1:35 AM 70.2 °F 64.9 °F 83% 30.14 in 10.0 mi ENE 4.6 mph - N/A   Overcast
1:55 AM 70.0 °F 64.8 °F 83% 30.15 in 10.0 mi ENE 5.8 mph - N/A   Overcast
2:15 AM 69.8 °F 64.8 °F 84% 30.16 in 10.0 mi NE 5.8 mph - N/A   Overcast
2:35 AM 69.8 °F 64.8 °F 84% 30.16 in 10.0 mi ENE 5.8 mph - N/A   Overcast
2:55 AM 69.8 °F 64.8 °F 84% 30.15 in 10.0 mi ENE 4.6 mph - N/A   Overcast
3:15 AM 69.8 °F 64.8 °F 84% 30.16 in 10.0 mi ENE 5.8 mph - N/A   Overcast
3:35 AM 69.8 °F 64.9 °F 84% 30.16 in 10.0 mi ENE 5.8 mph - N/A   Overcast
3:55 AM 69.3 °F 64.8 °F 86% 30.16 in 10.0 mi ENE 4.6 mph - N/A   Overcast
4:15 AM 69.3 °F 64.9 °F 86% 30.16 in 10.0 mi Calm Calm - N/A   Mostly Cloudy
4:35 AM 69.3 °F 64.9 °F 86% 30.16 in 10.0 mi Calm Calm - N/A   Overcast
4:55 AM 69.3 °F 65.1 °F 87% 30.16 in 10.0 mi Calm Calm - N/A   Overcast
5:15 AM 69.3 °F 65.1 °F 87% 30.16 in 10.0 mi NE 3.5 mph - N/A   Overcast
5:35 AM 68.9 °F 64.8 °F 87% 30.16 in 10.0 mi Calm Calm - N/A   Overcast
5:55 AM 68.5 °F 64.6 °F 87% 30.16 in 10.0 mi ENE 3.5 mph - N/A   Overcast
6:15 AM 68.5 °F 64.8 °F 88% 30.17 in 10.0 mi Calm Calm - N/A   Overcast
6:35 AM 68.4 °F 64.6 °F 88% 30.17 in 10.0 mi ENE 4.6 mph - N/A   Overcast
6:55 AM 68.0 °F 64.4 °F 88% 30.18 in 10.0 mi NE 4.6 mph - N/A   Overcast
7:15 AM 68.0 °F 64.4 °F 88% 30.18 in 10.0 mi East 4.6 mph - N/A   Overcast
7:35 AM 68.0 °F 64.4 °F 88% 30.18 in 10.0 mi East 4.6 mph - N/A   Overcast
7:55 AM 68.0 °F 64.4 °F 88% 30.19 in 10.0 mi ENE 4.6 mph - N/A   Overcast
8:15 AM 68.0 °F 64.4 °F 88% 30.19 in 10.0 mi ENE 5.8 mph - N/A   Overcast
8:35 AM 68.5 °F 64.4 °F 87% 30.19 in 10.0 mi Calm Calm - N/A   Overcast
8:55 AM 68.9 °F 64.6 °F 86% 30.19 in 10.0 mi ENE 5.8 mph - N/A   Overcast
9:15 AM 69.3 °F 64.4 °F 84% 30.20 in 10.0 mi East 6.9 mph - N/A   Overcast
9:35 AM 69.3 °F 64.4 °F 84% 30.20 in 10.0 mi ENE 4.6 mph - N/A   Overcast
9:55 AM 69.8 °F 63.9 °F 81% 30.20 in 10.0 mi East 5.8 mph - N/A   Overcast
10:15 AM 70.2 °F 63.1 °F 78% 30.20 in 10.0 mi East 4.6 mph - N/A   Overcast
10:35 AM 69.8 °F 62.6 °F 78% 30.21 in 10.0 mi East 5.8 mph - N/A   Overcast
10:55 AM 70.0 °F 63.5 °F 80% 30.21 in 10.0 mi East 4.6 mph - N/A   Overcast
11:15 AM 70.0 °F 63.3 °F 79% 30.21 in 10.0 mi ENE 5.8 mph - N/A   Overcast
11:35 AM 70.5 °F 63.5 °F 78% 30.21 in 10.0 mi East 4.6 mph - N/A   Overcast
11:55 AM 70.7 °F 62.6 °F 75% 30.22 in 10.0 mi ENE 9.2 mph - N/A   Mostly Cloudy
12:15 PM 71.1 °F 62.8 °F 75% 30.22 in 10.0 mi ENE 6.9 mph - N/A   Mostly Cloudy
12:35 PM 71.4 °F 62.6 °F 74% 30.21 in 10.0 mi ENE 4.6 mph - N/A   Mostly Cloudy
1:15 PM 70.7 °F 61.7 °F 73% 30.22 in 10.0 mi Calm Calm - N/A   Overcast
1:35 PM 70.9 °F 61.3 °F 72% 30.22 in 10.0 mi ENE 3.5 mph - N/A   Overcast
1:55 PM 70.7 °F 61.7 °F 73% 30.22 in 10.0 mi ENE 3.5 mph - N/A   Overcast
2:15 PM 70.7 °F 61.9 °F 74% 30.22 in 10.0 mi ENE 3.5 mph - N/A   Overcast
2:35 PM 70.9 °F 61.9 °F 73% 30.21 in 10.0 mi East 4.6 mph - N/A   Overcast
2:55 PM 71.6 °F 63.0 °F 74% 30.21 in 10.0 mi NE 3.5 mph - N/A   Overcast
3:15 PM 72.5 °F 62.8 °F 71% 30.21 in 10.0 mi NNE 3.5 mph - N/A   Overcast
3:35 PM 72.0 °F 62.6 °F 72% 30.21 in 10.0 mi ENE 3.5 mph - N/A   Overcast
3:55 PM 72.5 °F 61.5 °F 68% 30.21 in 10.0 mi ENE 4.6 mph - N/A   Overcast
4:15 PM 72.5 °F 61.7 °F 69% 30.21 in 10.0 mi Calm Calm - N/A   Overcast
4:35 PM 72.5 °F 61.7 °F 69% 30.20 in 10.0 mi NNE 4.6 mph - N/A   Overcast
4:55 PM 72.5 °F 61.3 °F 68% 30.19 in 10.0 mi Calm Calm - N/A   Overcast
5:15 PM 72.5 °F 61.0 °F 67% 30.19 in 10.0 mi Calm Calm - N/A   Mostly Cloudy
5:35 PM 72.5 °F 61.3 °F 68% 30.19 in 10.0 mi Calm Calm - N/A   Mostly Cloudy
5:55 PM 71.1 °F 61.7 °F 72% 30.19 in 10.0 mi Calm Calm - N/A   Mostly Cloudy
6:15 PM 71.6 °F 62.4 °F 73% 30.19 in 10.0 mi Calm Calm - N/A   Mostly Cloudy
6:35 PM 71.1 °F 62.2 °F 74% 30.19 in 10.0 mi Calm Calm - N/A   Overcast
6:55 PM 70.7 °F 62.6 °F 75% 30.19 in 10.0 mi Calm Calm - N/A   Overcast
7:15 PM 70.0 °F 62.8 °F 78% 30.19 in 10.0 mi Calm Calm - N/A   Overcast
7:35 PM 69.6 °F 62.8 °F 79% 30.19 in 10.0 mi Calm Calm - N/A   Overcast
7:55 PM 68.5 °F 62.2 °F 80% 30.19 in 10.0 mi Calm Calm - N/A   Scattered Clouds
8:15 PM 68.0 °F 62.1 °F 81% 30.20 in 10.0 mi Calm Calm - N/A   Clear
8:35 PM 65.8 °F 61.5 °F 86% 30.21 in 10.0 mi Calm Calm - N/A   Clear
8:55 PM 64.8 °F 61.0 °F 88% 30.21 in 10.0 mi Calm Calm - N/A   Scattered Clouds
9:15 PM 65.5 °F 61.2 °F 86% 30.22 in 10.0 mi Calm Calm - N/A   Overcast
9:35 PM 65.5 °F 61.0 °F 85% 30.22 in 10.0 mi Calm Calm - N/A   Overcast
9:55 PM 64.4 °F 60.4 °F 87% 30.22 in 10.0 mi Calm Calm - N/A   Overcast
10:15 PM 64.4 °F 60.1 °F 86% 30.23 in 10.0 mi Calm Calm - N/A   Overcast
10:35 PM 63.3 °F 59.5 °F 87% 30.23 in 10.0 mi Calm Calm - N/A   Mostly Cloudy
10:55 PM 62.2 °F 59.2 °F 90% 30.24 in 10.0 mi ENE 3.5 mph - N/A   Scattered Clouds
11:15 PM 66.4 °F 60.8 °F 82% 30.24 in 10.0 mi ENE 6.9 mph - N/A   Scattered Clouds
11:35 PM 66.2 °F 60.3 °F 81% 30.25 in 10.0 mi ENE 5.8 mph - N/A   Scattered Clouds
11:55 PM 65.8 °F 59.9 °F 81% 30.25 in 10.0 mi ENE 5.8 mph - N/A   Mostly Cloudy